Location: *
(46.9578°N, 3.5064°E)
Time: 12:47:00
(UTC+00:00)

Daily predictions for brighter satellites

Satellite Brightness Start Highest point End
(mag) Time Altitude Azimuth Time Altitude Azimuth Time Altitude Azimuth
Cosmos 1354 Rocket 4.4 19:17:18 10° SSW 19:22:37 74° WNW 19:27:59 10° NNE
Unknown 4.0 19:21:29 10° WNW 19:24:52 45° SW 19:28:15 10° SE
Cosmos 2369 Rocket 3.5 19:19:43 10° NW 19:24:59 40° WSW 19:30:12 10° S
CENTAUR R/B 4.0 19:17:49 10° NW 19:25:34 52° WSW 19:33:53 10° SSE
Unknown 3.9 19:21:38 10° WNW 19:25:47 65° NNE 19:29:54 10° ESE
Unknown 4.3 19:22:59 10° WNW 19:26:11 36° SW 19:29:20 10° SSE
SPOT 3 Rocket 3.6 19:21:00 10° SSE 19:26:11 90° SW 19:31:24 10° NNW
Unknown 3.8 19:22:32 10° WNW 19:26:37 66° NNE 19:30:42 10° ESE
USA 267 3.9 19:20:28 10° NE 19:26:52 60° NNW 19:33:17 10° WSW
Unknown 3.8 19:23:18 10° WNW 19:27:27 67° NNE 19:31:36 10° ESE
Unknown 3.5 19:24:14 10° WNW 19:27:59 72° SSW 19:31:43 10° SE
CZ-2C R/B 3.7 19:24:48 10° SE 19:29:01 33° ENE 19:33:18 10° N
Unknown 3.8 19:24:59 10° WNW 19:29:07 68° NNE 19:33:14 10° ESE
BREEZE-M DEB (TANK) 2.4 19:27:59 10° WNW 19:30:40 50° N 19:32:46 10° E
Unknown 3.8 19:26:35 10° WNW 19:30:43 68° NNE 19:34:52 10° ESE
Unknown 3.8 19:28:19 10° WNW 19:32:28 70° NNE 19:36:36 10° ESE
Unknown 3.5 19:29:02 10° WNW 19:32:57 87° SSW 19:36:50 10° ESE
Unknown 3.8 19:29:47 10° WNW 19:33:56 68° NNE 19:38:04 10° ESE
Resurs 1-3 3.8 19:30:30 10° SSE 19:34:46 56° ENE 19:39:05 10° N
Okean 1-7 3.1 19:32:41 10° N 19:37:08 89° E 19:41:32 10° S
Unknown 3.8 19:33:08 10° WNW 19:37:17 71° NNE 19:41:18 11° ESE
BREEZE-M DEB (TANK) 4.3 19:33:22 10° W 19:37:29 78° N 19:53:11 10° E
Spot 2 Rocket 4.4 19:33:56 10° SE 19:38:27 33° ENE 19:43:00 10° N
Unknown 3.7 19:34:49 10° WNW 19:38:59 72° NNE 19:42:55 11° ESE
Cosmos 2292 Rocket 3.8 19:34:10 10° N 19:39:50 74° E 19:44:00 10° SSE
Unknown 3.7 19:36:40 10° WNW 19:40:49 78° NNE 19:44:40 12° ESE
Unknown 3.7 19:38:07 10° WNW 19:42:17 75° NNE 19:46:05 12° ESE
ATLAS 2AS CENTAUR R/B 4.3 19:35:40 10° WSW 19:43:17 45° NW 19:50:54 10° NE
Unknown 3.6 19:39:41 10° WNW 19:43:31 69° SW 19:46:56 12° SE
Unknown 3.7 19:39:49 10° WNW 19:43:59 77° NNE 19:47:43 13° ESE
Meteor 1-20 Rocket 4.3 19:39:32 10° S 19:45:19 71° E 19:51:04 10° NNE
BREEZE M DEB (TANK)3.819:51:28ENE19:51:28ENE19:45:27SSE
Unknown 3.6 19:43:10 10° WNW 19:47:21 80° NNE 19:50:56 14° ESE
Unknown 3.6 19:44:47 10° WNW 19:48:58 82° NNE 19:52:29 14° ESE
Aureole 2 Rocket 3.6 19:48:20 10° N 19:50:23 19° ENE 19:51:39 14° E
Unknown 3.6 19:46:28 10° WNW 19:50:38 83° NNE 19:54:06 15° ESE
SJ-6B 3.9 19:47:18 10° S 19:51:04 46° W 19:54:57 10° NNW
Unknown 3.6 19:48:06 10° WNW 19:52:16 85° NNE 19:55:40 15° ESE
Unknown 3.6 19:49:47 10° WNW 19:53:58 87° NE 19:57:17 16° ESE
Unknown 3.6 19:53:25 10° WNW 19:57:35 82° SSW 20:00:46 17° SE
Resurs 01 Rocket 1.6 19:53:38 10° SSE 19:58:00 75° ENE 20:02:26 10° N
COSMOS 2406 4.4 19:53:58 10° SSE 19:58:06 21° E 20:02:17 10° NE
Cosmos 773 Rocket 4.2 19:53:49 10° NNW 19:58:59 73° WSW 20:04:05 10° SSE
Unknown 3.6 19:55:02 10° WNW 19:59:11 81° SSW 20:02:17 17° SE
Unknown 3.6 19:56:32 10° WNW 20:00:42 84° SSW 20:03:45 18° SE
Aureole 2 4.4 19:59:12 10° S 20:02:10 42° ESE 20:05:00 10° NE
USA 186 4.1 20:00:38 10° SW 20:02:16 16° W 20:03:59 10° NW
Unknown 3.6 19:58:07 10° WNW 20:02:17 84° SSW 20:05:17 18° SE
USA 234 4.2 19:56:22 10° SSE 20:02:26 40° SW 20:08:33 10° WNW
ASTEX 1 4.0 19:59:22 10° NNE 20:03:59 37° E 20:07:53 14° SSE
Unknown 3.6 20:01:27 10° WNW 20:05:37 80° SSW 20:08:29 19° SE
Unknown 3.6 20:03:04 10° WNW 20:07:13 78° SSW 20:10:02 20° SE
Cosmos 1602 3.6 20:04:58 10° S 20:08:47 71° E 20:12:36 10° NNE
Unknown 3.6 20:04:46 10° WNW 20:08:55 77° SSW 20:11:40 20° SE
Cosmos 1980 Rocket 4.3 20:06:13 10° N 20:08:59 14° NE 20:11:45 10° ENE
Unknown 3.6 20:06:28 10° WNW 20:10:37 75° SSW 20:13:18 21° SE
CZ-2C R/B 3.4 20:06:36 10° NNE 20:11:14 31° E 20:14:34 17° SSE
H-2A R/B 2.6 20:06:38 10° S 20:11:38 57° W 20:16:33 10° NNW
Okean 3 3.4 20:09:07 10° N 20:13:17 64° ENE 20:16:25 17° SSE
Cosmos 1777 Rocket 4.1 20:10:33 10° SSW 20:15:49 85° WNW 20:21:09 10° NNE
SJ 16-02 3.4 20:16:46 12° E 20:16:46 12° E 20:17:43 10° ENE
RESURS DK-1 4.2 20:13:16 10° WSW 20:17:07 35° NW 20:20:59 10° NNE
Unknown 3.7 20:13:03 10° WNW 20:17:11 68° SW 20:19:37 23° SE
Unknown 3.7 20:14:44 10° WNW 20:18:52 66° SSW 20:21:13 24° SE
MetOp-A 4.3 20:15:09 10° S 20:20:30 76° WSW 20:25:53 10° NNW
Unknown 3.8 20:16:26 10° WNW 20:20:32 64° SW 20:22:50 25° SE
Cosmos 923 Rocket 4.1 20:15:43 10° NNW 20:21:03 67° ENE 20:24:38 21° SE
BREEZE-M DEB (TANK) 1.9 20:19:29 10° WNW 20:21:45 84° SSW 20:24:22 22° ESE
Unknown 3.8 20:18:02 10° WNW 20:22:09 62° SW 20:24:23 25° SE
Unknown 3.8 20:19:46 10° WNW 20:23:52 61° SW 20:26:03 26° SE
Meteor 2-4 Rocket 3.6 20:19:45 10° N 20:25:07 64° ENE 20:28:47 20° SSE
Unknown 3.9 20:23:06 10° WNW 20:27:11 58° SW 20:29:14 27° SSE
Cosmos 1898 Rocket 4.4 20:26:55 23° SE 20:28:34 27° E 20:32:58 10° NE
USA 245 4.1 20:26:06 24° SE 20:28:36 53° ENE 20:33:50 10° N
Starlink (trailer) 3.9 20:24:44 10° WNW 20:28:49 56° SW 20:30:48 27° SSE
Unknown 4.0 20:26:27 10° WNW 20:30:30 54° SW 20:32:26 28° SSE
ARGOS 4.3 20:27:05 10° SSW 20:32:08 42° W 20:37:13 10° NNW
Cosmos 1553 Rocket 4.0 20:25:54 10° S 20:32:08 82° E 20:38:30 10° N
Unknown 4.0 20:28:07 10° WNW 20:32:11 53° SW 20:34:02 28° SSE
Cosmos 1680 Rocket 3.6 20:28:44 10° NNW 20:33:59 65° ENE 20:36:52 26° SE
IGS 5A 4.3 20:32:36 26° ESE 20:34:01 34° ENE 20:37:47 10° N
Iridium 2 4.5 20:33:51 30° ESE 20:34:23 31° E 20:37:45 10° NNE
Abrixas rocket 2.2 20:32:24 10° SW 20:35:22 45° SSE 20:35:25 45° SSE
Meteor 1-11 Rocket 4.1 20:33:27 19° SSE 20:37:32 50° E 20:43:17 10° NNE
Unknown 4.2 20:34:44 10° WNW 20:38:44 47° SW 20:40:22 30° SSE
Cosmos 1500 3.7 20:39:15 35° SE 20:40:04 40° E 20:43:42 10° NNE
Unknown 4.2 20:36:27 10° WNW 20:40:26 46° SW 20:42:01 30° SSE
Cosmos 1378 Rocket 3.8 20:36:18 10° N 20:40:37 53° ENE 20:42:18 33° SE
Cosmos 1733 Rocket 2.9 20:37:14 12° S 20:41:14 90° W 20:45:35 10° N
Cosmos 44 4.1 20:37:30 10° NW 20:41:40 38° WSW 20:44:14 19° S
Unknown 4.3 20:38:04 10° WNW 20:42:03 44° SW 20:43:34 30° SSE
Cosmos 1417 Rocket 4.5 20:37:09 10° S 20:43:18 85° W 20:49:28 10° N
Unknown 4.3 20:39:48 10° WNW 20:43:46 44° SW 20:45:13 31° S
Cosmos 1674 Rocket 3.4 20:40:07 10° N 20:44:31 82° E 20:46:37 30° SSE
Unknown 4.4 20:41:36 10° WNW 20:45:31 41° SW 20:46:55 30° S
Cosmos 2098 Rocket 3.5 20:42:17 10° N 20:46:20 48° E 20:48:04 33° SE
Geosat 4.1 20:43:54 25° SSE 20:46:50 75° WSW 20:51:53 10° NNW
CZ-4B DEB 4.3 20:45:51 42° SSE 20:46:55 90° N 20:50:20 10° NNW
Unknown 4.4 20:43:04 10° WNW 20:47:00 41° SW 20:48:20 31° S
Terra 2.9 20:46:37 26° E 20:48:03 31° ENE 20:52:13 10° N
Unknown 4.5 20:44:54 10° WNW 20:48:46 39° SW 20:50:03 30° S
Unknown 4.4 20:46:02 10° WNW 20:49:57 41° SW 20:51:13 32° S
Unknown 4.4 20:46:27 10° WNW 20:50:20 39° SW 20:51:34 31° S
DMSP B5D2-2 4.3 20:45:09 10° N 20:50:24 75° WNW 20:55:38 10° SSW
Cosmos 1709 Rocket 4.1 20:45:44 10° N 20:51:44 55° ENE 20:54:35 30° SE
Unknown 4.5 20:48:11 10° WNW 20:52:02 38° SW 20:53:12 31° S
Aureole 3 Rocket 2.6 20:50:57 38° SSE 20:52:16 66° E 20:55:34 10° NNE
SPOT 5 3.1 20:52:51 36° ESE 20:53:59 45° ENE 20:58:07 10° N
S3M 4.0 20:48:56 10° S 20:55:16 86° W 21:01:33 10° N
Cosmos 2315 Rocket 4.3 20:53:55 29° SSE 20:56:49 48° E 21:02:53 10° NNE
GP-B 3.0 20:54:08 10° N 20:58:37 88° E 21:00:38 32° S
EXPRESS MD2 2.4 20:55:16 10° WNW 20:59:09 82° NNE 20:59:13 81° NE
FALCON 9 R/B 4.4 20:39:29 10° SW 21:00:18 31° S 21:03:42 26° SE
ERS-1 Rocket 2.9 20:58:25 36° SSE 21:00:29 73° ENE 21:05:31 10° N
EO 1 Del DPAF 3.2 20:58:18 10° NNE 21:02:04 60° E 21:02:25 57° SE
Cosmos 1975 Rocket 3.7 20:58:59 10° N 21:03:06 37° ENE 21:03:39 35° E
ADEOS Rocket 4.0 20:59:22 10° N 21:04:54 46° WNW 21:10:55 10° SW
SPOT 1/Viking Rocket 3.5 21:03:47 36° SSE 21:06:00 82° ENE 21:11:16 10° NNW
Cosmos 1340 4.4 21:07:33 21° ENE 21:07:33 21° ENE 21:09:26 10° NE
CZ-2C R/B 4.4 21:04:51 10° SSW 21:08:55 30° W 21:13:09 10° NNW
Cosmos 1745 Rocket 4.3 21:04:44 10° NNW 21:10:47 61° W 21:15:05 20° SSW
Cosmos 2278 4.3 21:10:03 10° NNW 21:15:27 44° NE 21:17:15 34° E
Cosmos 2082 Rocket 3.3 21:16:34 26° E 21:16:34 26° E 21:20:21 10° NE
Meteor 1-5 Rocket 4.4 21:13:37 16° SSW 21:18:21 75° WNW 21:24:00 10° N
Cosmos 1937 Rocket 3.6 21:19:21 48° SE 21:20:19 55° ESE 21:25:32 10° NNE
Cosmos 44 Rocket 3.3 21:16:50 10° NW 21:21:36 65° WSW 21:22:35 51° S
Cosmos 1833 Rocket 3.0 21:21:47 42° ESE 21:21:58 42° ESE 21:27:15 10° NE
Aureole 2 Rocket 4.4 21:22:40 10° WNW 21:24:14 16° W 21:24:14 16° W
SL-16 R/B 4.3 21:21:17 10° N 21:24:45 16° NE 21:27:52 11° ENE
CARTOSAT-1 3.4 21:25:26 66° SSE 21:26:03 89° ENE 21:30:23 10° NNW
USA 32 4.0 21:20:52 10° N 21:26:06 64° E 21:27:06 52° SE
Cosmos 1066 Rocket 4.1 21:20:43 10° N 21:26:10 66° ENE 21:27:22 51° SE
Cosmos 990 Rocket 3.8 21:25:27 41° S 21:27:19 77° ESE 21:32:32 10° NNE
Meteor 1-23 Rocket 4.2 21:25:36 10° NNW 21:31:23 83° W 21:33:15 45° S
Cosmos 1697 Rocket 2.8 21:27:09 10° NNW 21:32:49 66° ENE 21:34:10 50° ESE
Cosmos 1536 3.3 21:33:20 45° SW 21:34:16 59° WNW 21:38:19 10° N
Cosmos 1656 3.7 21:28:41 10° NNW 21:34:23 78° WSW 21:35:53 50° S
Resurs 01 Rocket 4.3 21:33:11 10° WSW 21:35:02 12° W 21:36:53 10° WNW
Okean 2 Rocket 4.1 21:36:11 32° ENE 21:36:11 32° ENE 21:39:18 10° NNE
Meteor 2-8 Rocket 4.4 21:35:04 48° SSE 21:36:32 63° E 21:42:32 10° NNE
Cosmos 1908 Rocket 4.0 21:35:48 38° SW 21:37:18 59° WNW 21:41:45 10° N
Cosmos 1666 3.1 21:39:30 58° NNE 21:39:30 58° NNE 21:42:41 10° NNE
Cosmos 1241 Rocket 4.5 21:32:33 10° SW 21:39:08 87° NW 21:45:39 10° NE
Cosmos 158 Rocket 4.0 21:34:42 10° NNW 21:40:00 77° WSW 21:41:06 56° S
Sich 1 Rocket 3.5 21:40:16 73° E 21:40:16 73° E 21:44:47 10° NNE
Cosmos 1346 Rocket 3.3 21:42:07 51° NNE 21:42:07 51° NNE 21:45:07 10° NNE
COSMOS 2406 3.5 21:36:13 10° SW 21:41:52 66° WNW 21:47:35 10° NNE
NOSS 3-1 (C) 4.4 21:35:37 10° NW 21:42:48 56° NE 21:46:42 31° ESE
Okean 2 3.9 21:44:22 10° N 21:47:49 51° NE 21:47:49 51° NE
CZ-2C R/B 3.8 21:46:44 10° N 21:51:36 40° WNW 21:56:04 12° SW
SJ 16-02 1.4 21:53:43 73° W 21:53:54 75° WNW 21:58:21 10° NNE
Cosmos 1980 Rocket 2.4 21:48:46 10° NNW 21:54:19 56° ENE 21:55:10 50° E
Thor Agena Rocket 3.9 21:51:30 10° N 21:56:37 63° WNW 21:58:32 37° SW
Helios 1A 4.2 21:57:18 31° NE 21:57:18 31° NE 22:00:27 10° N
ALOS 2 4.5 22:00:39 19° ENE 22:00:39 19° ENE 22:03:34 10° NNE
Cosmos 2369 3.7 21:56:19 10° NNW 22:01:57 69° WSW 22:02:42 61° SSW
Mayak 0.2 22:05:18 10° NNE 22:07:41 29° NE 22:07:41 29° NE
MOS 1 Rocket 3.9 22:04:47 10° N 22:10:03 64° WNW 22:11:30 46° SW
Cosmos 1898 Rocket 4.5 22:07:07 20° SW 22:10:25 45° WNW 22:15:28 10° NNE
Cosmos 1048 Rocket 4.2 22:05:58 10° NNW 22:11:00 55° ENE 22:11:02 55° ENE
Cosmos 1025 Rocket 3.9 22:11:34 10° N 22:14:56 43° NE 22:14:56 43° NE
Cosmos 2151 Rocket 4.3 22:19:02 46° NE 22:19:02 46° NE 22:22:22 10° NNE
Cosmos 2154 Rocket 3.9 22:19:05 10° N 22:25:21 69° ENE 22:25:55 65° ESE
Terra 2.9 22:25:30 34° WSW 22:25:43 35° W 22:30:05 10° NNW
Cosmos 1125 Rocket 4.3 22:34:33 42° ENE 22:34:33 42° ENE 22:38:19 10° NNE
Cosmos 2360 4.2 22:27:39 10° NNW 22:33:19 68° WSW 22:33:21 68° WSW
Meteor 1-12 Rocket 4.5 22:37:11 61° E 22:37:11 61° E 22:42:46 10° NNE
Nadezhda 1 Rocket 3.8 22:36:57 78° SSE 22:37:22 84° E 22:43:33 10° N
USA 229 DEB 3.7 22:31:20 10° NW 22:38:36 78° SW 22:39:45 65° S
USA 229 3.7 22:31:26 10° NW 22:38:41 79° SW 22:39:51 65° S
Cosmos 1975 4.2 22:41:08 38° NNW 22:41:08 38° NNW 22:43:51 10° N
Cosmos 2322 Rocket 3.0 22:35:48 10° NNW 22:41:05 39° NE 22:41:43 38° ENE
NOSS 3-1 (A) 4.1 22:34:30 10° NW 22:41:58 76° NE 22:44:17 51° ESE
Cosmos 2074 Rocket 4.3 22:38:00 10° NNW 22:44:08 55° W 22:45:04 50° WSW
Cosmos 2184 Rocket 4.3 22:40:24 10° NNW 22:46:24 54° W 22:47:09 51° WSW
Spot 4 4.3 22:48:02 59° NW 22:48:02 59° NW 22:52:05 10° NNW
USA 267 4.3 22:45:20 10° E 22:51:24 43° NNE 22:57:29 10° NW
Okean 1 Rocket 4.4 22:53:08 35° NNE 22:53:08 35° NNE 22:55:49 10° NNE
Cosmos 2082 Rocket 2.8 22:58:22 46° W 22:59:27 52° WNW 23:05:00 10° NNE
Meteor 1-21 4.4 22:54:13 10° NNW 22:59:37 62° W 22:59:37 62° W
Meteor 2-15 Rocket 4.4 22:59:29 72° WSW 22:59:50 74° WNW 23:05:58 10° N
Cosmos 494 Rocket 4.3 22:56:24 10° NNW 23:00:48 63° N 23:00:48 63° N
Cosmos 2341 Rocket 3.9 22:55:31 10° N 23:01:56 78° E 23:02:08 77° ESE
Meteor 2-9 Rocket 4.4 23:05:40 70° W 23:05:45 70° WNW 23:11:39 10° N
Cosmos 1833 Rocket 4.0 23:03:26 24° W 23:05:58 36° NW 23:11:10 10° NNE
SL-16 R/B 2.3 23:04:17 10° NNW 23:09:43 68° NE 23:09:43 68° NE
CZ-4C R/B 3.2 23:14:43 34° ENE 23:14:43 34° ENE 23:18:25 10° NE
Cosmos 2366 rocket 4.2 23:09:13 10° N 23:15:21 56° ENE 23:15:29 56° E
Cosmos 1697 Rocket 4.4 23:12:05 10° NW 23:15:54 21° W 23:15:54 21° W
Cosmos 2181 Rocket 3.9 23:33:20 84° NNE 23:33:20 84° NNE 23:39:18 10° N
Cosmos 2360 Rocket 2.8 23:27:41 10° NNW 23:33:10 48° ENE 23:33:21 48° ENE
SJ 16-02 4.3 23:32:06 10° WNW 23:33:20 11° NW 23:34:35 10° NNW
Meteor 1-15 Rocket 4.5 23:34:22 61° NE 23:34:22 61° NE 23:39:10 10° NNE
NOSS 3-1 (C) 4.4 23:26:35 10° NW 23:33:51 48° WSW 23:34:04 48° WSW
Helios 1B rocket 4.0 23:32:11 10° N 23:34:39 34° N 23:34:39 34° N
ALOS 2 4.1 23:38:03 32° NW 23:38:03 32° NW 23:40:41 10° NNW
Lacrosse 4 Rocket 3.7 23:33:50 10° N 23:36:54 19° NE 23:37:07 19° NE
Cosmos 1980 Rocket 3.8 23:33:25 10° NW 23:36:55 24° W 23:36:55 24° W
Cosmos 2219 Rocket 4.1 23:37:14 10° N 23:41:40 23° NE 23:44:22 17° E
Mayak 1.0 23:41:34 10° NNW 23:44:16 20° WNW 23:44:16 20° WNW
SL-8 Rocket 4.0 23:39:06 10° NNW 23:45:16 72° W 23:45:16 72° W
Cosmos 1867 4.5 23:42:22 10° NW 23:46:07 41° WNW 23:46:07 41° WNW
